[sarex] 2 Line ISS Keps 10-8

Dave Larsen PhD doc at volcano.net
Sat Oct 7 20:06:47 PDT 2006


ISS
1 25544U 98067A   06280.83315972  .00017644  00000-0  11122-3 0  8153
2 25544 051.6380 327.1528 0013277 071.1247 272.2800 15.76661008450926


More information about the SAREX mailing list